Location: Unspecified
(48.2082°N, 0.0000°E)
Time: 14:49:31
(UTC+00:00)

Transit 4A - Pass Details

Date: 17 June 2019
Orbit: 864 x 981 km, 66.8° (Epoch: 25 August)

Event Time Altitude Azimuth Distance (km) Brightness Sun altitude
Rises 13:37:13 0° 303° (WNW) 3,680 11.1 58.7°
Reaches altitude 10° 13:41:15 10° 328° (NNW) 2,741 10.4 58.2°
Maximum altitude 13:44:34 14° 359° (N) 2,440 10.1 57.8°
Drops below altitude 10° 13:47:54 10° 31° (NNE) 2,741 10.2 57.4°
Sets 13:51:56 0° 55° (NE) 3,680 10.7 56.8°
